Tracking 18673 objects as of 27-June-2017
HD Live streaming from Space Station
objects crossing your sky now

PERSEUS M2

Track PERSEUS M2 now!
10-day predictions
PERSEUS M2 is classified as:


NORAD ID: 40037
Int'l Code: 2014-033AD
Perigee: 607.8 km
Apogee: 626.0 km
Inclination: 97.9 °
Period: 96.9 minutes
Semi major axis: 6987 km
RCS: Unknown
Launch date: June 19, 2014
Source: Commonwealth of Independent States (former USSR) (CIS)
Launch site: Orenburg, Russia (OREN)
Uplink (MHz):
Downlink (MHz): 400.190/400.221
Beacon (MHz):
Mode: 9600bps GFSK
Call sign:
Status:

Your satellite tracking list
Your tracking list is empty





NASA's NSSDC Master Catalog

Two Line Element Set (TLE):
1 40037U 14033AD  17177.82160526 +.00000080 +00000-0 +15439-4 0  9992
2 40037 097.9118 086.5419 0012997 274.9626 085.0106 14.86228466163241
Source of the keplerian elements: AFSPC